Regional Weather Roundup
Issued by NWS

Home | Current Version | Previous Version | Graphics & Text | Print | Product List | Glossary On
Versions: 1 2 3 4 5 6 7 8 9 10 11 12 13 14 15 16 17 18 19 20 21 22 23 24 25 26 27 28 29 30 31 32 33 34 35 36 37 38 39 40 41 42 43 44 45 46 47 48 49 50
000
ASUS43 KLSX 141357
RWRMO

WEATHER SUMMARY FOR MISSOURI
NATIONAL WEATHER SERVICE SPRINGFIELD MO
800 AM CST THU DEC 14 2017

NOTE: "FAIR" INDICATES FEW OR NO CLOUDS BELOW 12,000 FEET WITH NO
       SIGNIFICANT WEATHER AND/OR OBSTRUCTIONS TO VISIBILITY.
       CURRENT SKY AND/OR WEATHER CONDITIONS ARE NOT AVAILABLE FOR
       CHILLICOTHE AND FARMINGTON.

MOZ001>031-035>038-043-044-053-054-141500-
...NORTHERN AND WESTERN MISSOURI...

CITY           SKY/WX    TMP DP  RH WIND       PRES   REMARKS
KANSAS CTY INT CLOUDY    35  24  64 N3        30.06R
LEE`S SUMMIT   CLOUDY    36  23  59 N7        30.07R
ST JOSEPH      CLOUDY    34  27  75 NW3       30.08R
CHILLICOTHE      N/A     29  20  69 CALM      30.09R

$$
MOZ066>068-077>081-088>096-101>105-141500-
...SOUTHWEST MISSOURI...

CITY           SKY/WX    TMP DP  RH WIND       PRES   REMARKS
SPRINGFIELD    CLOUDY    35  27  72 N10       30.03R WCI  27
JOPLIN         CLOUDY    31  28  89 CALM      30.08R
BRANSON        CLOUDY    34  27  75 NW5       30.04R WCI  30

$$
MOZ032>034-039>042-045>050-055>058-069>072-141500-
...CENTRAL MISSOURI...

CITY           SKY/WX    TMP DP  RH WIND       PRES   REMARKS
COLUMBIA       NOT AVBL
JEFFERSON CITY CLOUDY    34  22  61 CALM      30.05R
ROLLA          CLOUDY    32  22  66 NW6       30.01R WCI  26
SEDALIA        PTCLDY    30  22  72 N9        30.07R WCI  22
WARRENSBURG    CLOUDY    32  23  69 N6        30.07R WCI  26

$$
MOZ051-052-059>065-141500-
...EAST CENTRAL MISSOURI...

CITY           SKY/WX    TMP DP  RH WIND       PRES   REMARKS
ST LOUIS INTL  CLOUDY    30  19  63 N8        30.05R WCI  22

$$
MOZ072>076-082>087-097>100-106>115-141500-
...SOUTH CENTRAL AND SOUTHEAST MISSOURI...

CITY           SKY/WX    TMP DP  RH WIND       PRES   REMARKS
CAPE GIRARDEAU CLOUDY    36  24  62 N9        30.01R WCI  29
POPLAR BLUFF   CLOUDY    38  24  57 N12       30.01R
WEST PLAINS    CLOUDY    32  23  69 NW5       30.01R WCI  27

$$


USA.gov is the U.S. government's official web portal to all federal, state and local government web resources and services.